Location: Bouysse
(45.3674°N, 1.8947°E)
Time: 07:43:53
(UTC+00:00)

Meteor 1-27 - Pass Details

Date: 07 June 2020
Orbit: 836 x 894 km, 81.3° (Epoch: 07 July)

Event Time Altitude Azimuth Distance (km) Brightness Sun altitude
Rises 01:50:08 0° 345° (NNW) 3,398 8.1 -16.7°
Reaches altitude 10° 01:52:35 10° 341° (NNW) 2,461 7.2 -16.5°
Maximum altitude 01:57:59 54° 265° (W) 1,015 4.4 -16.0°
Enters shadow 02:01:16 24° 198° (SSW) 1,697 5.2 -15.7°
